• en Belgique
  • Liste des pays
  • À 7 jours
  • Température de l'eau
  • Carte satellitaire
  • Carte météo
  • Widgets météo
  • user-avatar
    Se connecter

    Météo par heure à Darwin

    Ce jour, 13 Décembre, Mercredi

    Heure Température Précipitation Vent Pression Humidité
    00:00 +30°C° 1,2 mm 2 m/s 756 mmHg 79%
    01:00 +30°C° 0 mm 2 m/s 755 mmHg 78%
    02:00 +30°C° 0 mm 2 m/s 755 mmHg 78%
    03:00 +30°C° 0 mm 2 m/s 755 mmHg 77%
    04:00 +29°C° 0 mm 1 m/s 755 mmHg 77%
    05:00 +29°C° 0 mm 1 m/s 756 mmHg 78%
    06:00 +29°C° 0 mm 1 m/s 756 mmHg 78%
    07:00 +31°C° 0 mm 1 m/s 756 mmHg 70%
    08:00 +34°C° 0 mm 2 m/s 756 mmHg 62%
    09:00 +36°C° 0 mm 2 m/s 757 mmHg 57%
    10:00 +37°C° 0,2 mm 3 m/s 756 mmHg 54%
    11:00 +38°C° 0,2 mm 3 m/s 756 mmHg 52%
    12:00 +38°C° 0,2 mm 4 m/s 756 mmHg 49%
    13:00 +38°C° 0,6 mm 4 m/s 755 mmHg 50%
    14:00 +38°C° 0,6 mm 4 m/s 755 mmHg 50%
    15:00 +37°C° 0 mm 4 m/s 754 mmHg 55%
    16:00 +36°C° 0,9 mm 4 m/s 754 mmHg 60%
    17:00 +34°C° 0,9 mm 3 m/s 754 mmHg 65%
    18:00 +33°C° 0,9 mm 3 m/s 754 mmHg 70%
    19:00 +33°C° 0,5 mm 3 m/s 755 mmHg 74%
    20:00 +31°C° 0,5 mm 3 m/s 755 mmHg 77%
    21:00 +30°C° 0,5 mm 4 m/s 756 mmHg 80%
    22:00 +30°C° 3,1 mm 3 m/s 756 mmHg 82%
    23:00 +29°C° 3,1 mm 3 m/s 756 mmHg 84%

    Demain, 14 Décembre, Jeudi

    Heure Température Précipitation Vent Pression Humidité
    00:00 +29°C° 3,1 mm 3 m/s 756 mmHg 85%
    01:00 +28°C° 3,7 mm 4 m/s 756 mmHg 86%
    02:00 +28°C° 3,7 mm 4 m/s 756 mmHg 86%
    03:00 +27°C° 3,7 mm 5 m/s 756 mmHg 86%
    04:00 +28°C° 0,1 mm 4 m/s 756 mmHg 84%
    05:00 +28°C° 0,1 mm 3 m/s 756 mmHg 83%
    06:00 +28°C° 0,1 mm 2 m/s 756 mmHg 81%
    07:00 +30°C° 0 mm 2 m/s 756 mmHg 74%
    08:00 +31°C° 0 mm 2 m/s 756 mmHg 68%
    09:00 +34°C° 0 mm 2 m/s 756 mmHg 61%
    10:00 +35°C° 0 mm 2 m/s 756 mmHg 56%
    11:00 +37°C° 0 mm 3 m/s 755 mmHg 51%
    12:00 +38°C° 0 mm 3 m/s 755 mmHg 46%
    13:00 +38°C° 0,1 mm 3 m/s 754 mmHg 48%
    14:00 +37°C° 0,1 mm 4 m/s 754 mmHg 51%
    15:00 +37°C° 0,1 mm 5 m/s 753 mmHg 53%
    16:00 +35°C° 0,9 mm 4 m/s 754 mmHg 60%
    17:00 +34°C° 0,9 mm 4 m/s 754 mmHg 66%
    18:00 +32°C° 0,9 mm 4 m/s 754 mmHg 73%
    19:00 +32°C° 0,1 mm 4 m/s 754 mmHg 74%
    20:00 +31°C° 0,1 mm 3 m/s 755 mmHg 76%
    21:00 +30°C° 0,1 mm 3 m/s 755 mmHg 77%
    22:00 +30°C° 0,1 mm 3 m/s 755 mmHg 77%
    23:00 +30°C° 0,1 mm 3 m/s 755 mmHg 76%

    Après-demain, 15 Décembre, Vendredi

    Heure Température Précipitation Vent Pression Humidité
    00:00 +30°C° 0,1 mm 2 m/s 755 mmHg 75%
    01:00 +29°C° 0,1 mm 2 m/s 755 mmHg 76%
    02:00 +29°C° 0,1 mm 2 m/s 754 mmHg 77%
    03:00 +29°C° 0,1 mm 2 m/s 754 mmHg 78%
    04:00 +29°C° 0,1 mm 2 m/s 754 mmHg 79%
    05:00 +29°C° 0,1 mm 2 m/s 755 mmHg 81%
    06:00 +29°C° 0,1 mm 2 m/s 755 mmHg 82%
    07:00 +30°C° 0,2 mm 2 m/s 756 mmHg 75%
    08:00 +32°C° 0,2 mm 2 m/s 756 mmHg 67%
    09:00 +35°C° 0,2 mm 3 m/s 757 mmHg 60%
    10:00 +36°C° 0 mm 2 m/s 756 mmHg 55%
    11:00 +37°C° 0 mm 2 m/s 756 mmHg 50%
    12:00 +38°C° 0 mm 2 m/s 755 mmHg 45%
    13:00 +38°C° 0 mm 3 m/s 755 mmHg 45%
    14:00 +38°C° 0 mm 3 m/s 754 mmHg 46%
    15:00 +38°C° 0 mm 3 m/s 753 mmHg 46%
    16:00 +37°C° 0 mm 3 m/s 753 mmHg 50%
    17:00 +36°C° 0 mm 3 m/s 753 mmHg 54%
    18:00 +35°C° 0 mm 3 m/s 754 mmHg 58%
    19:00 +34°C° 0,1 mm 3 m/s 754 mmHg 62%
    20:00 +33°C° 0,1 mm 3 m/s 755 mmHg 66%
    21:00 +31°C° 0,1 mm 3 m/s 755 mmHg 70%
    22:00 +31°C° 1,4 mm 3 m/s 755 mmHg 74%
    23:00 +30°C° 1,4 mm 3 m/s 756 mmHg 77%

    16 Décembre, Samedi

    Heure Température Précipitation Vent Pression Humidité
    00:00 +29°C° 1,4 mm 3 m/s 756 mmHg 80%
    01:00 +29°C° 0,4 mm 2 m/s 756 mmHg 80%
    02:00 +29°C° 0,4 mm 2 m/s 756 mmHg 80%
    03:00 +29°C° 0,4 mm 2 m/s 756 mmHg 80%
    04:00 +29°C° 0,7 mm 2 m/s 756 mmHg 80%
    05:00 +29°C° 0,7 mm 1 m/s 756 mmHg 80%
    06:00 +29°C° 0,7 mm 1 m/s 756 mmHg 80%
    07:00 +30°C° 0 mm 1 m/s 757 mmHg 74%
    08:00 +32°C° 0 mm 1 m/s 757 mmHg 68%
    09:00 +33°C° 0 mm 1 m/s 757 mmHg 62%
    10:00 +35°C° 0 mm 1 m/s 757 mmHg 56%
    11:00 +36°C° 0 mm 1 m/s 757 mmHg 50%
    12:00 +39°C° 0 mm 2 m/s 756 mmHg 45%
    13:00 +39°C° 0 mm 2 m/s 756 mmHg 46%
    14:00 +38°C° 0 mm 2 m/s 755 mmHg 47%
    15:00 +37°C° 0 mm 3 m/s 755 mmHg 48%
    16:00 +37°C° 0,1 mm 3 m/s 755 mmHg 51%
    17:00 +36°C° 0,1 mm 3 m/s 755 mmHg 55%
    18:00 +35°C° 0,1 mm 3 m/s 755 mmHg 58%
    19:00 +34°C° 0,3 mm 3 m/s 756 mmHg 64%
    20:00 +33°C° 0,3 mm 3 m/s 756 mmHg 70%
    21:00 +30°C° 0,3 mm 3 m/s 757 mmHg 76%
    22:00 +30°C° 0,7 mm 3 m/s 757 mmHg 78%
    23:00 +30°C° 0,7 mm 3 m/s 757 mmHg 80%

    17 Décembre, Dimanche

    Heure Température Précipitation Vent Pression Humidité
    00:00 +30°C° 0,7 mm 3 m/s 757 mmHg 82%
    01:00 +29°C° 1,2 mm 2 m/s 756 mmHg 83%
    02:00 +29°C° 1,2 mm 2 m/s 756 mmHg 83%
    03:00 +29°C° 1,2 mm 1 m/s 755 mmHg 84%
    04:00 +29°C° 0,2 mm 2 m/s 756 mmHg 84%
    05:00 +29°C° 0,2 mm 2 m/s 756 mmHg 84%
    06:00 +29°C° 0,2 mm 2 m/s 756 mmHg 83%
    07:00 +30°C° 0 mm 2 m/s 757 mmHg 78%
    08:00 +32°C° 0 mm 2 m/s 757 mmHg 72%
    09:00 +34°C° 0 mm 2 m/s 757 mmHg 66%
    10:00 +35°C° 0 mm 2 m/s 757 mmHg 60%
    11:00 +37°C° 0 mm 2 m/s 757 mmHg 55%
    12:00 +38°C° 0 mm 2 m/s 756 mmHg 49%
    13:00 +37°C° 0,1 mm 3 m/s 756 mmHg 51%
    14:00 +37°C° 0,1 mm 3 m/s 755 mmHg 52%
    15:00 +37°C° 0,1 mm 4 m/s 754 mmHg 54%
    16:00 +36°C° 0,4 mm 4 m/s 754 mmHg 59%
    17:00 +34°C° 0,4 mm 3 m/s 754 mmHg 65%
    18:00 +33°C° 0,4 mm 3 m/s 754 mmHg 70%
    19:00 +33°C° 0,2 mm 3 m/s 755 mmHg 73%
    20:00 +31°C° 0,2 mm 3 m/s 755 mmHg 75%
    21:00 +30°C° 0,2 mm 3 m/s 756 mmHg 78%
    22:00 +30°C° 1,8 mm 3 m/s 756 mmHg 80%
    23:00 +30°C° 1,8 mm 3 m/s 756 mmHg 81%

    18 Décembre, Lundi

    Heure Température Précipitation Vent Pression Humidité
    00:00 +29°C° 1,8 mm 2 m/s 756 mmHg 83%
    01:00 +29°C° 0,1 mm 3 m/s 756 mmHg 83%
    02:00 +29°C° 0,1 mm 3 m/s 755 mmHg 83%
    03:00 +29°C° 0,1 mm 3 m/s 755 mmHg 83%
    04:00 +29°C° 0,1 mm 3 m/s 755 mmHg 84%
    05:00 +29°C° 0,1 mm 3 m/s 755 mmHg 84%
    06:00 +29°C° 0,1 mm 3 m/s 756 mmHg 84%
    07:00 +30°C° 0 mm 3 m/s 756 mmHg 78%
    08:00 +33°C° 0 mm 3 m/s 756 mmHg 72%
    09:00 +34°C° 0 mm 3 m/s 756 mmHg 66%
    10:00 +36°C° 0 mm 3 m/s 756 mmHg 60%
    11:00 +37°C° 0 mm 3 m/s 756 mmHg 54%
    12:00 +38°C° 0 mm 4 m/s 755 mmHg 49%
    13:00 +37°C° 0,5 mm 4 m/s 755 mmHg 52%
    14:00 +37°C° 0,5 mm 5 m/s 754 mmHg 55%
    15:00 +36°C° 0,5 mm 5 m/s 754 mmHg 59%
    16:00 +35°C° 1 mm 5 m/s 754 mmHg 64%
    17:00 +34°C° 1 mm 4 m/s 754 mmHg 69%
    18:00 +32°C° 1 mm 4 m/s 755 mmHg 75%
    19:00 +31°C° 0,7 mm 3 m/s 755 mmHg 77%
    20:00 +30°C° 0,7 mm 3 m/s 755 mmHg 79%
    21:00 +30°C° 0,7 mm 2 m/s 756 mmHg 82%
    22:00 +29°C° 1,8 mm 3 m/s 756 mmHg 83%
    23:00 +29°C° 1,8 mm 3 m/s 756 mmHg 83%
    Voir plus